TimeCDT,TemperatureF,Dew PointF,Humidity,Sea Level PressureIn,VisibilityMPH,Wind Direction,Wind SpeedMPH,Gust SpeedMPH,PrecipitationIn,Events,Conditions,WindDirDegrees,DateUTC
12:53 AM,71.1,57.9,63,30.05,10.0,Calm,Calm,-,N/A,,Clear,0,2013-09-16 05:53:00
1:53 AM,69.1,59.0,70,30.06,10.0,Calm,Calm,-,N/A,,Clear,0,2013-09-16 06:53:00
2:53 AM,66.9,57.9,73,30.06,10.0,Calm,Calm,-,N/A,,Clear,0,2013-09-16 07:53:00
3:53 AM,66.9,57.9,73,30.05,10.0,Calm,Calm,-,N/A,,Clear,0,2013-09-16 08:53:00
4:53 AM,66.0,57.9,75,30.05,10.0,Calm,Calm,-,N/A,,Clear,0,2013-09-16 09:53:00
5:53 AM,64.9,57.9,78,30.07,10.0,Calm,Calm,-,N/A,,Clear,0,2013-09-16 10:53:00
6:53 AM,64.0,57.9,80,30.09,10.0,Calm,Calm,-,N/A,,Clear,0,2013-09-16 11:53:00
7:53 AM,64.9,59.0,81,30.11,10.0,Calm,Calm,-,N/A,,Clear,0,2013-09-16 12:53:00
8:53 AM,73.0,57.0,57,30.13,10.0,Calm,Calm,-,N/A,,Clear,0,2013-09-16 13:53:00
9:53 AM,78.1,57.0,48,30.15,10.0,Calm,Calm,-,N/A,,Overcast,0,2013-09-16 14:53:00
10:53 AM,84.0,57.9,41,30.14,10.0,Variable,3.5,-,N/A,,Overcast,0,2013-09-16 15:53:00
11:53 AM,89.1,62.1,40,30.14,10.0,North,10.4,-,N/A,,Overcast,10,2013-09-16 16:53:00
12:53 PM,90.0,62.1,39,30.13,10.0,Variable,4.6,-,N/A,,Clear,0,2013-09-16 17:53:00
1:53 PM,91.0,61.0,36,30.10,10.0,Variable,4.6,-,N/A,,Scattered Clouds,0,2013-09-16 18:53:00
2:53 PM,91.9,62.1,37,30.07,10.0,Variable,4.6,-,N/A,,Overcast,0,2013-09-16 19:53:00
3:53 PM,91.0,62.1,38,30.05,10.0,East,4.6,-,N/A,,Mostly Cloudy,90,2013-09-16 20:53:00
4:53 PM,91.9,61.0,35,30.03,10.0,ENE,6.9,-,N/A,,Partly Cloudy,70,2013-09-16 21:53:00
5:53 PM,90.0,60.1,37,30.04,10.0,Variable,4.6,-,N/A,,Clear,0,2013-09-16 22:53:00
6:53 PM,88.0,60.1,39,30.04,10.0,East,5.8,-,N/A,,Clear,80,2013-09-16 23:53:00
7:53 PM,84.0,57.0,40,30.06,10.0,East,8.1,-,N/A,,Clear,80,2013-09-17 00:53:00
8:53 PM,81.0,57.0,44,30.09,10.0,ENE,6.9,-,N/A,,Clear,70,2013-09-17 01:53:00
9:53 PM,78.1,57.9,50,30.10,10.0,Calm,Calm,-,N/A,,Clear,0,2013-09-17 02:53:00
10:53 PM,77.0,64.0,64,30.11,9.0,East,5.8,-,N/A,,Clear,80,2013-09-17 03:53:00
11:53 PM,75.0,66.0,73,30.12,9.0,ENE,5.8,-,N/A,,Clear,70,2013-09-17 04:53:00